Home   Weather   Oklahoma City   Past weeks
Flag for USA

Past Weather in Oklahoma City, Oklahoma, USA — Yesterday and Last 2 Weeks

Now
27 °F

Overcast.


Feels Like: 11 °F
Forecast: 30 / 22 °F
Wind: 31 mph from North

Location: Will Rogers World Airport

Current Time: Jan 19, 2019 at 2:59:01 pm

Latest Report: Jan 19, 2019 at 1:52 pm


Visibility: 10 mi

Pressure: 30.27 "Hg

Humidity: 66%

Dew Point: 17 °F

Location of Oklahoma CityLocation

Past Weather in Oklahoma City — Graph

°F

Oklahoma City Temperature Yesterday

Maximum temperature yesterday: 62 °F (at 2:52 pm)
Minimum temperature yesterday: 32 °F (at 1:52 am)
Average temperature yesterday: 46 °F

High & Low Weather Summary for the Past Weeks

 TemperatureHumidityPressure
High64 °F (Jan 7, 1:52 pm)100% (Jan 11, 10:52 am)30.62 "Hg (Jan 11, 10:52 am)
Low23 °F (Jan 19, 8:52 am)22% (Jan 9, 3:52 pm)29.56 "Hg (Jan 18, 5:52 pm)
Average42 °F79%30.11 "Hg
* Reported Jan 4 12:52 pm — Jan 19 12:52 pm, Oklahoma City. Weather by CustomWeather, © 2019

Note: Actual official high and low records may vary slightly from our data, if they occured in-between our weather recording intervals... More about our weather records

Advertising

Oklahoma City Weather History for the Previous 24 Hours

Scroll right to see more
 ConditionsComfort  
Time TempWeatherWind HumidityBarometerVisibility
12:52 pm
Sat, Jan 19
27 °FOvercast.25 mph66%30.24 "Hg10 mi
11:52 am26 °FPartly sunny.30 mph66%30.25 "Hg10 mi
10:52 am24 °FOvercast.32 mph71%30.24 "Hg10 mi
9:52 am24 °FOvercast.31 mph71%30.21 "Hg10 mi
8:52 am23 °FOvercast.30 mph74%30.16 "Hg10 mi
7:52 am24 °FOvercast.31 mph71%30.11 "Hg10 mi
6:52 am25 °FOvercast.36 mph78%30.08 "Hg10 mi
5:52 am26 °FOvercast.26 mph77%30.04 "Hg10 mi
5:17 am27 °FOvercast.29 mph78%29.99 "Hg10 mi
4:52 am27 °FOvercast.32 mph78%29.99 "Hg9 mi
4:22 am27 °FLight snow. Ice fog.30 mph85%29.98 "Hg5 mi
3:52 am28 °FLight snow. Overcast.28 mph81%29.98 "Hg7 mi
3:19 am29 °FOvercast.29 mph79%29.96 "Hg10 mi
2:52 am29 °FOvercast.30 mph82%29.94 "Hg10 mi
1:52 am31 °FOvercast.35 mph82%29.89 "Hg10 mi
12:52 am33 °FOvercast.38 mph82%29.84 "Hg10 mi
11:52 pm
Fri, Jan 18
36 °FOvercast.33 mph82%29.81 "Hg10 mi
10:52 pm39 °FOvercast.31 mph86%29.76 "Hg10 mi
10:34 pm41 °FOvercast.35 mph86%29.74 "Hg10 mi
9:52 pm46 °FLow clouds.32 mph89%29.71 "Hg10 mi
8:52 pm49 °FMostly cloudy.24 mph90%29.66 "Hg7 mi
8:40 pm49 °FPassing clouds.24 mph93%29.65 "Hg8 mi
7:52 pm55 °FLight rain. Overcast.18 mph74%29.62 "Hg10 mi
7:30 pm57 °FLight rain. Mostly cloudy.17 mph72%29.62 "Hg10 mi
6:52 pm55 °FPartly cloudy.9 mph80%29.57 "Hg10 mi
5:52 pm58 °FPartly cloudy.12 mph70%29.56 "Hg10 mi
4:52 pm61 °FMostly cloudy.13 mph58%29.57 "Hg10 mi
3:52 pm61 °FBroken clouds.13 mph60%29.57 "Hg10 mi
2:52 pm62 °FScattered clouds.22 mph56%29.56 "Hg10 mi
Weather by CustomWeather, © 2019

See weather overview